Header for Extended Forecast Station List Page

Search by: ID | Name | Date | Parm | Value | Avg | % Avg
Sort by: ID | Name | Date | Parm | Value | Avg | % Avg

Enter search or view all records.

Click on id for station plot
#IDNameDateParmValueAvg% Avg
0LEOI1KOOTENAI-AT LEONIA12-09-2019DISCHARGE (KAF)14851307114
1FCFM8NF FLATHEAD-NEAR COLUMBIA FALLS12-09-2019DISCHARGE (KAF)14617285
2WGCM8MF FLATHEAD-NEAR WEST GLACIER12-09-2019DISCHARGE (KAF)7515349
3CFMM8FLATHEAD-AT COLUMBIA FALLS12-09-2019DISCHARGE (KAF)882115277
4DLGM8CLARK FORK-AT DEER LODGE12-09-2019DISCHARGE (KAF)596395
5DRMM8CLARK FORK-NR DRUMMOND12-09-2019DISCHARGE (KAF)157MM
6RCCM8ROCK CREEK-NEAR CLINTON12-09-2019DISCHARGE (KAF)5346115
7BONM8BLACKFOOT-NEAR BONNER12-09-2019DISCHARGE (KAF)172142121
8ABOM8CLARK FORK-ABOVE MISSOULA12-09-2019DISCHARGE (KAF)398354112
9BITM8BITTERROOT-NEAR MISSOULA12-09-2019DISCHARGE (KAF)237233102
10BELM8CLARK FORK-BELOW MISSOULA12-09-2019DISCHARGE (KAF)635594107
11STRM8ST. REGIS-NEAR ST. REGIS12-09-2019DISCHARGE (KAF)205736
12SRGM8CLARK FORK-AT ST REGIS12-09-2019DISCHARGE (KAF)77180496
13PRTI1PRIEST-NEAR PRIEST RIVER12-09-2019DISCHARGE (KAF)12722756
14SPOW1SPOKANE-AT SPOKANE12-09-2019DISCHARGE (KAF)787MM
15SATI1ST MARIES-NEAR SANTA12-09-2019DISCHARGE (KAF)397354
16CIBW1COLUMBIA-AT INTL BOUNDARY12-09-2019DISCHARGE (KAF)17720MM
17LAUW1KETTLE-AT LAURIER12-09-2019DISCHARGE (KAF)154150103
18TONW1OKANOGAN-NEAR TONASKET12-09-2019DISCHARGE (KAF)21829873
19PATW1METHOW-NEAR PATEROS12-09-2019DISCHARGE (KAF)9510491
20ARDW1ENTIAT-NEAR ARDENVOIR12-09-2019DISCHARGE (KAF)202486
21PESW1WENATCHEE-AT PESHASTIN12-09-2019DISCHARGE (KAF)26133179
22EASW1YAKIMA-AT EASTON12-09-2019DISCHARGE (KAF)578567
23TNAW1TEANAWAY-BELOW FORKS12-09-2019DISCHARGE (KAF)476870
24UMTW1YAKIMA-AT UMTANUM12-09-2019DISCHARGE (KAF)24734372
25CLFW1NACHES-NEAR CLIFFDEL12-09-2019DISCHARGE (KAF)6413547
26NACW1NACHES-NEAR NACHES12-09-2019DISCHARGE (KAF)6312550
27PARW1YAKIMA-NEAR PARKER12-09-2019DISCHARGE (KAF)33958858
28KIOW1YAKIMA-AT KIONA12-09-2019DISCHARGE (KAF)46886954
29CHEI1FALL RIVER-NEAR CHESTER12-09-2019DISCHARGE (KAF)10311094
30ANTI1HENRYS FORK-AT ST. ANTHONY12-09-2019DISCHARGE (KAF)34634999
31TEAI1TETON-NEAR ST. ANTHONY12-09-2019DISCHARGE (KAF)879889
32REXI1HENRYS FORK-AT REXBURG12-09-2019DISCHARGE (KAF)41743596
33JKSW4SNAKE-NEAR JACKSON12-09-2019DISCHARGE (KAF)26030585
34ALPW4SNAKE-NEAR ALPINE12-09-2019DISCHARGE (KAF)32037585
35HEII1SNAKE-NEAR HEISE12-09-2019DISCHARGE (KAF)51157289
36SIFI1SNAKE-AB EAGLE ROCK NR IDAHO FALLS12-09-2019DISCHARGE (KAF)75682292
37SHYI1SNAKE-NEAR SHELLEY12-09-2019DISCHARGE (KAF)73683788
38SNAI1SNAKE-AT BLACKFOOT12-09-2019DISCHARGE (KAF)65476486
39BFTI1SNAKE-NEAR BLACKFOOT12-09-2019DISCHARGE (KAF)65981181
40PIHI1PORTNEUF-AT POCATELLO12-09-2019DISCHARGE (KAF)597776
41MILI1SNAKE-AT MILNER12-09-2019DISCHARGE (KAF)347455
42HOTI1BRUNEAU-NEAR HOT SPRINGS12-09-2019DISCHARGE (KAF)364385
43SWAI1SNAKE-BELOW SWAN FALLS12-09-2019DISCHARGE (KAF)1784270866
44HWRI1BIG LOST-AT HOWELL RANCH NEAR CHILLY12-09-2019DISCHARGE (KAF)2119111
45HALI1BIG WOOD-AT HAILEY12-09-2019DISCHARGE (KAF)4139107
46BIGI1BOISE-AT GLENWOOD BRIDGE12-09-2019DISCHARGE (KAF)14853278
47PARI1BOISE-NEAR PARMA12-09-2019DISCHARGE (KAF)293233126
48EMMI1PAYETTE-NEAR EMMETT12-09-2019DISCHARGE (KAF)29546264
49WSRI1WEISER-NEAR WEISER12-09-2019DISCHARGE (KAF)19620895
50WEII1SNAKE-AT WEISER12-09-2019DISCHARGE (KAF)2860422068
51WHBI1SALMON-AT WHITEBIRD12-09-2019DISCHARGE (KAF)991111489
52TRYO3GRANDE RONDE-TROY12-09-2019DISCHARGE (KAF)33453862
53ANAW1SNAKE-NEAR ANATONE12-09-2019DISCHARGE (KAF)4733684669
54ORFI1CLEARWATER-AT OROFINO12-09-2019DISCHARGE (KAF)732104270
55SPDI1CLEARWATER-AT SPALDING12-09-2019DISCHARGE (KAF)1310225758
56TCHW1WALLA WALLA-NEAR TOUCHET12-09-2019DISCHARGE (KAF)16519983
57GIBO3UMATILLA-NEAR GIBBON12-09-2019DISCHARGE (KAF)6055108
58PDTO3UMATILLA-AT PENDLETON12-09-2019DISCHARGE (KAF)12014682
59MYKO3MCKAY CREEK-NEAR PILOT ROCK12-09-2019DISCHARGE (KAF)4234122
60UMAO3UMATILLA-NEAR UMATILLA12-09-2019DISCHARGE (KAF)11515077
61MONO3NF JOHN DAY-AT MONUMENT12-09-2019DISCHARGE (KAF)11527142
62SERO3JOHN DAY-AT SERVICE CK12-09-2019DISCHARGE (KAF)21143948
63MODO3DESCHUTES-AT MOODY NR BIGGS12-09-2019DISCHARGE (KAF)1443157792
64PITW1KLICKITAT-NEAR PITT12-09-2019DISCHARGE (KAF)28040270
65HODO3HOOD-NEAR TUCKER BRIDGE12-09-2019DISCHARGE (KAF)25427991
66UNDW1WHITE SALMON-NEAR UNDERWOOD12-09-2019DISCHARGE (KAF)25231281
67LYDM8KOOTENAI-LIBBY DAM12-09-2019INFLOW (KAF)75678796
68HHWM8SF FLATHEAD-HUNGRY HORSE DAM12-09-2019INFLOW (KAF)22225089
69KERM8FLATHEAD-KERR DAM12-09-2019INFLOW (KAF)1020152067
70NOXM8CLARK FORK-NOXON RAPIDS DAM12-09-2019INFLOW (KAF)2755376673
71CABI1CLARK FORK-CABINET GORGE DAM12-09-2019INFLOW (KAF)3049393078
72ALFW1PEND OREILLE-ALBENI FALLS DAM12-09-2019INFLOW (KAF)3366465972
73COEI1COEUR D ALENE-COEUR D ALENE LAKE12-09-2019INFLOW (KAF)866123170
74LLKW1SPOKANE-AT LONGLAKE12-09-2019INFLOW (KAF)1059173361
75GCDW1COLUMBIA-GRAND COULEE DAM12-09-2019INFLOW (KAF)1905617139111
76CHJW1COLUMBIA-CHIEF JOSEPH DAM12-09-2019INFLOW (KAF)192032316683
77WELW1COLUMBIA-WELLS DAM12-09-2019INFLOW (KAF)195202357683
78CHDW1CHELAN-LAKE CHELAN DAM12-09-2019INFLOW (KAF)13717778
79RRHW1COLUMBIA-ROCKY REACH DAM12-09-2019INFLOW (KAF)199022412982
80WANW1COLUMBIA-WANAPUM DAM12-09-2019INFLOW (KAF)201602113395
81PRWW1COLUMBIA-PRIEST RAPIDS DAM12-09-2019INFLOW (KAF)201632140094
82KEDW1YAKIMA-KEECHELUS LAKE12-09-2019INFLOW (KAF)5151101
83KADW1KACHESS-KACHESS DAM12-09-2019INFLOW (KAF)475093
84CLUW1CLE ELUM-CLE ELUM LAKE12-09-2019INFLOW (KAF)8711079
85BUDW1BUMPING-BUMPING LAKE DAM12-09-2019INFLOW (KAF)193752
86RILW1TIETON-RIMROCK LAKE NEAR RIMROCK12-09-2019INFLOW (KAF)407553
87IPDI1HENRYS FORK-ISLAND PARK DAM12-09-2019INFLOW (KAF)8211274
88JLKW4SNAKE-JACKSON LAKE AT DAM12-09-2019INFLOW (KAF)9711882
89PLDI1SF SNAKE-PALISADES DAM12-09-2019INFLOW (KAF)52660587
90RIDI1WILLOW CREEK-RIRIE DAM12-09-2019INFLOW (KAF)1511134
91AFRI1SNAKE-AMERICAN FALLS RESERVOIR12-09-2019INFLOW (KAF)1307154185
92MACI1BIG LOST-MACKAY RESERVOIR NEAR MACKAY12-09-2019INFLOW (KAF)375786
93MAGI1BIG WOOD-MAGIC DAM12-09-2019INFLOW (KAF)4847101
94LWRI1LITTLE WOOD-LITTLE WOOD DAM12-09-2019INFLOW (KAF)171891
95OWYO3OWYHEE-OWYHEE DAM12-09-2019INFLOW (KAF)16518689
96ARAI1SF BOISE-ANDERSON RANCH DAM12-09-2019INFLOW (KAF)7610076
97LUCI1BOISE-LUCKY PEAK DAM12-09-2019INFLOW (KAF)220MM
98WRMO3MALHEUR-WARM SPRINGS DAM12-09-2019INFLOW (KAF)335955
99BERO3MALHEUR-AGENCY VALLEY DAM12-09-2019INFLOW (KAF)163250
100BULO3BULLY CREEK-BULLY CREEK DAM12-09-2019INFLOW (KAF)248281
101CSDI1NF PAYETTE-CASCADE DAM12-09-2019INFLOW (KAF)8911478
102DEDI1DEADWOOD-NEAR LOWMAN12-09-2019INFLOW (KAF)142069
103BRNI1SNAKE-BROWNLEE DAM12-09-2019INFLOW (KAF)3098442770
104DWRI1NF CLEARWATER-DWORSHAK DAM12-09-2019INFLOW (KAF)73981790
105LGDW1SNAKE-LOWER GRANITE DAM12-09-2019INFLOW (KAF)6043926665
106LGSW1SNAKE-LITTLE GOOSE DAM12-09-2019INFLOW (KAF)6043933165
107LMNW1SNAKE-LOWER MONUMENTAL DAM12-09-2019INFLOW (KAF)6299957766
108IHDW1SNAKE-ICE HARBOR DAM12-09-2019INFLOW (KAF)6299949566
109MCDW1COLUMBIA-MCNARY DAM12-09-2019INFLOW (KAF)270623314082
110JDAO3COLUMBIA-JOHN DAY DAM12-09-2019INFLOW (KAF)285733486082
111TDAO3COLUMBIA-THE DALLES DAM12-09-2019INFLOW (KAF)291833918574
112BONO3COLUMBIA-BONNEVILLE DAM12-09-2019INFLOW (KAF)299524173372
113HOPI1PEND OREILLE-PEND OREILLE LAKE NR HOPE12-09-2019LAKE ELEVATION (FT)MMM
114BFEI1KOOTENAI-AT BONNERS FERRY12-09-2019STAGE (FT)MMM
115SJMI1ST JOE-AT ST MARIES12-09-2019STAGE (FT)MMM